QPF
0.01 0.00 0.00 0.00 0.00 0.00 0.00 0.01 0.01 0.00 0.00 0.00 0.00 0.00 0.00 0.00 0.01 0.01 0.02 0.04 0.04 0.06 0.07 0.08 0.09 0.10 0.12 0.14 0.15 0.16 0.18 0.19 0.14 0.09 0.08 0.09 0.07 0.05 0.05 0.04 0.03 0.02 0.00
0.00 0.00 0.00 0.00 0.00 0.00 0.00 0.01 0.01 0.01 0.00 0.00 0.00 0.00 0.00 0.00 0.01 0.01 0.02 0.03 0.04 0.06 0.07 0.09 0.10 0.12 0.14 0.15 0.16 0.16 0.16 0.17 0.15 0.12 0.09 0.08 0.06 0.05 0.04 0.03 0.03 0.01 0.00
0.00 0.00 0.00 0.00 0.00 0.00 0.01 0.01 0.01 0.01 0.01 0.01 0.00 0.00 0.00 0.00 0.01 0.01 0.02 0.03 0.04 0.05 0.07 0.09 0.11 0.13 0.14 0.14 0.15 0.15 0.14 0.14 0.14 0.13 0.11 0.08 0.06 0.04 0.03 0.02 0.02 0.01 0.00
0.00 0.01 0.01 0.01 0.01 0.01 0.01 0.01 0.01 0.01 0.01 0.01 0.01 0.00 0.00 0.00 0.00 0.01 0.01 0.01 0.03 0.04 0.06 0.09 0.12 0.14 0.15 0.15 0.15 0.15 0.15 0.14 0.12 0.13 0.11 0.08 0.06 0.04 0.03 0.02 0.01 0.01 0.00
0.00 0.00 0.00 0.00 0.00 0.00 0.01 0.01 0.01 0.01 0.01 0.01 0.01 0.01 0.01 0.00 0.00 0.01 0.01 0.01 0.02 0.03 0.05 0.09 0.13 0.16 0.18 0.17 0.16 0.18 0.19 0.16 0.12 0.10 0.08 0.07 0.05 0.04 0.03 0.01 0.01 0.00 0.00
0.01 0.00 0.00 0.00 0.00 0.00 0.00 0.01 0.01 0.01 0.02 0.02 0.02 0.02 0.01 0.01 0.00 0.00 0.00 0.01 0.01 0.03 0.04 0.07 0.12 0.14 0.16 0.17 0.16 0.16 0.17 0.16 0.12 0.07 0.06 0.05 0.04 0.03 0.02 0.01 0.00 0.00 0.00
0.00 0.00 0.00 0.00 0.00 0.00 0.00 0.01 0.01 0.02 0.03 0.03 0.03 0.03 0.02 0.02 0.00 0.00 0.00 0.00 0.01 0.01 0.02 0.03 0.08 0.13 0.12 0.11 0.10 0.09 0.08 0.07 0.07 0.06 0.04 0.03 0.02 0.01 0.01 0.00 0.00 0.00 0.00
0.00 0.00 0.00 0.00 0.00 0.00 0.00 0.01 0.02 0.04 0.04 0.04 0.04 0.04 0.04 0.03 0.01 0.00 0.00 0.00 0.01 0.01 0.01 0.02 0.04 0.05 0.05 0.05 0.04 0.03 0.03 0.02 0.03 0.03 0.02 0.01 0.01 0.01 0.00 0.00 0.00 0.00 0.00
0.00 0.00 0.00 0.00 0.00 0.00 0.00 0.01 0.03 0.05 0.06 0.07 0.08 0.07 0.07 0.06 0.02 0.00 0.01 0.01 0.02 0.02 0.02 0.02 0.02 0.01 0.01 0.02 0.02 0.02 0.01 0.01 0.01 0.01 0.00 0.00 0.00 0.00 0.00 0.00 0.00 0.00 0.00
0.00 0.00 0.00 0.00 0.00 0.00 0.01 0.01 0.04 0.06 0.08 0.10 0.10 0.10 0.10 0.09 0.06 0.01 0.01 0.02 0.02 0.02 0.02 0.02 0.02 0.01 0.01 0.01 0.02 0.02 0.01 0.00 0.00 0.00 0.00 0.00 0.00 0.00 0.00 0.00 0.00 0.00 0.00
0.00 0.00 0.00 0.00 0.01 0.01 0.01 0.02 0.04 0.09 0.13 0.15 0.14 0.14 0.14 0.13 0.11 0.04 0.01 0.03 0.03 0.02 0.02 0.01 0.00 0.00 0.00 0.01 0.01 0.02 0.01 0.00 0.00 0.00 0.00 0.00 0.00 0.00 0.00 0.00 0.00 0.00 0.00
0.00 0.00 0.00 0.01 0.00 0.00 0.01 0.02 0.05 0.11 0.17 0.22 0.23 0.21 0.19 0.18 0.14 0.08 0.02 0.02 0.02 0.01 0.02 0.01 0.00 0.00 0.00 0.00 0.01 0.01 0.00 0.00 0.00 0.00 0.00 0.00 0.00 0.00 0.00 0.00 0.00 0.00 0.00
0.01 0.01 0.01 0.01 0.00 0.01 0.01 0.02 0.05 0.12 0.22 0.29 0.32 0.31 0.27 0.22 0.16 0.08 0.03 0.01 0.01 0.02 0.01 0.00 0.00 0.00 0.00 0.00 0.00 0.00 0.00 0.00 0.00 0.00 0.00 0.00 0.00 0.00 0.00 0.00 0.00 0.00 0.00
0.01 0.01 0.01 0.01 0.01 0.01 0.02 0.02 0.04 0.12 0.26 0.36 0.39 0.38 0.36 0.30 0.20 0.10 0.04 0.02 0.01 0.01 0.00 0.00 0.00 0.00 0.00 0.00 0.00 0.00 0.00 0.00 0.00 0.00 0.00 0.00 0.00 0.00 0.00 0.00 0.00 0.00 0.00
0.01 0.01 0.01 0.01 0.01 0.01 0.02 0.03 0.04 0.09 0.23 0.37 0.43 0.43 0.42 0.37 0.24 0.13 0.05 0.01 0.01 0.00 0.00 0.00 0.00 0.00 0.00 0.00 0.00 0.00 0.00 0.00 0.00 0.00 0.00 0.00 0.00 0.00 0.00 0.00 0.00 0.00 0.00
0.02 0.01 0.01 0.01 0.01 0.01 0.02 0.03 0.03 0.05 0.14 0.27 0.36 0.41 0.41 0.36 0.28 0.17 0.07 0.02 0.00 0.00 0.00 0.00 0.00 0.00 0.00 0.00 0.00 0.00 0.00 0.00 0.00 0.00 0.00 0.00 0.00 0.00 0.00 0.00 0.00 0.00 0.00
0.02 0.02 0.02 0.02 0.02 0.02 0.03 0.04 0.06 0.08 0.14 0.24 0.30 0.34 0.38 0.34 0.27 0.17 0.07 0.03 0.01 0.00 0.00 0.00 0.00 0.00 0.00 0.00 0.00 0.00 0.00 0.00 0.00 0.00 0.00 0.00 0.00 0.00 0.00 0.00 0.00 0.00 0.00
0.03 0.03 0.03 0.02 0.02 0.02 0.03 0.04 0.06 0.11 0.20 0.27 0.30 0.32 0.34 0.32 0.23 0.14 0.06 0.03 0.02 0.00 0.00 0.00 0.00 0.00 0.00 0.00 0.00 0.00 0.00 0.00 0.00 0.00 0.00 0.00 0.00 0.00 0.00 0.00 0.00 0.00 0.00
0.03 0.03 0.03 0.03 0.03 0.03 0.04 0.05 0.07 0.12 0.21 0.27 0.30 0.34 0.34 0.32 0.22 0.12 0.06 0.03 0.01 0.00 0.00 0.00 0.00 0.00 0.00 0.00 0.00 0.00 0.00 0.00 0.00 0.00 0.00 0.00 0.00 0.00 0.00 0.00 0.00 0.00 0.00
0.04 0.03 0.04 0.04 0.04 0.03 0.04 0.05 0.08 0.15 0.22 0.25 0.27 0.30 0.34 0.34 0.22 0.11 0.06 0.02 0.00 0.00 0.00 0.00 0.00 0.00 0.00 0.00 0.00 0.00 0.00 0.00 0.00 0.00 0.00 0.00 0.00 0.00 0.00 0.00 0.00 0.00 0.00
0.05 0.04 0.04 0.04 0.04 0.04 0.04 0.06 0.10 0.17 0.22 0.23 0.22 0.23 0.25 0.23 0.13 0.06 0.04 0.02 0.00 0.00 0.00 0.00 0.00 0.00 0.00 0.00 0.00 0.00 0.00 0.00 0.00 0.00 0.00 0.00 0.00 0.00 0.00 0.00 0.00 0.00 0.00
0.06 0.06 0.05 0.04 0.03 0.04 0.05 0.07 0.12 0.18 0.21 0.20 0.19 0.19 0.20 0.17 0.09 0.03 0.02 0.02 0.00 0.00 0.00 0.00 0.00 0.00 0.00 0.00 0.00 0.00 0.00 0.00 0.00 0.00 0.00 0.00 0.00 0.00 0.00 0.00 0.00 0.00 0.00
0.07 0.05 0.04 0.03 0.03 0.03 0.04 0.08 0.14 0.18 0.19 0.17 0.16 0.17 0.17 0.15 0.08 0.03 0.01 0.02 0.01 0.00 0.00 0.00 0.00 0.00 0.00 0.00 0.00 0.00 0.00 0.00 0.00 0.00 0.00 0.00 0.00 0.00 0.00 0.00 0.00 0.00 0.00
0.06 0.05 0.04 0.04 0.04 0.04 0.06 0.10 0.14 0.16 0.15 0.14 0.12 0.12 0.11 0.10 0.06 0.02 0.01 0.02 0.01 0.00 0.00 0.00 0.00 0.00 0.00 0.00 0.00 0.00 0.00 0.00 0.00 0.00 0.00 0.00 0.00 0.00 0.00 0.00 0.00 0.00 0.00
0.05 0.04 0.03 0.03 0.04 0.05 0.08 0.11 0.13 0.14 0.13 0.10 0.09 0.08 0.07 0.06 0.05 0.02 0.01 0.01 0.01 0.00 0.00 0.00 0.00 0.00 0.00 0.00 0.00 0.00 0.00 0.00 0.00 0.00 0.00 0.00 0.00 0.00 0.00 0.00 0.00 0.00 0.00
0.03 0.03 0.03 0.03 0.04 0.06 0.09 0.11 0.11 0.11 0.10 0.08 0.07 0.05 0.04 0.04 0.04 0.02 0.01 0.01 0.01 0.00 0.00 0.00 0.00 0.00 0.00 0.00 0.00 0.00 0.00 0.00 0.00 0.00 0.00 0.00 0.00 0.00 0.00 0.00 0.00 0.00 0.00
MSLP
1012.09 1011.83 1011.54 1011.20 1010.84 1010.47 1010.13 1009.82 1009.57 1009.38 1009.24 1009.12 1008.99 1008.82 1008.58 1008.27 1007.86 1007.39 1006.87 1006.33 1005.81 1005.36 1005.00 1004.76 1004.66 1004.70 1004.88 1005.19 1005.60 1006.08 1006.59 1007.10 1007.59 1008.01 1008.36 1008.62 1008.80 1008.90 1008.95 1008.97 1008.98 1008.99 1009.03
1012.49 1012.17 1011.80 1011.39 1010.94 1010.49 1010.04 1009.64 1009.30 1009.02 1008.79 1008.60 1008.43 1008.23 1007.98 1007.68 1007.31 1006.88 1006.42 1005.95 1005.51 1005.13 1004.85 1004.69 1004.66 1004.76 1004.99 1005.34 1005.78 1006.27 1006.79 1007.30 1007.77 1008.18 1008.51 1008.76 1008.93 1009.03 1009.09 1009.13 1009.17 1009.22 1009.30
1012.76 1012.40 1011.99 1011.52 1011.02 1010.51 1010.00 1009.54 1009.13 1008.78 1008.50 1008.25 1008.03 1007.80 1007.55 1007.26 1006.92 1006.55 1006.15 1005.76 1005.41 1005.12 1004.93 1004.85 1004.89 1005.05 1005.32 1005.69 1006.13 1006.60 1007.09 1007.56 1007.98 1008.34 1008.63 1008.85 1009.00 1009.09 1009.15 1009.20 1009.26 1009.34 1009.46
1012.79 1012.42 1011.98 1011.50 1010.98 1010.45 1009.93 1009.44 1009.01 1008.64 1008.32 1008.05 1007.80 1007.56 1007.31 1007.03 1006.73 1006.40 1006.08 1005.77 1005.51 1005.32 1005.22 1005.23 1005.33 1005.54 1005.84 1006.20 1006.62 1007.05 1007.48 1007.88 1008.23 1008.53 1008.77 1008.94 1009.05 1009.13 1009.18 1009.23 1009.30 1009.39 1009.52
1012.52 1012.14 1011.71 1011.24 1010.74 1010.23 1009.74 1009.28 1008.87 1008.51 1008.20 1007.93 1007.69 1007.45 1007.21 1006.95 1006.68 1006.41 1006.15 1005.93 1005.76 1005.66 1005.65 1005.74 1005.91 1006.16 1006.47 1006.82 1007.20 1007.58 1007.93 1008.26 1008.54 1008.76 1008.93 1009.05 1009.13 1009.19 1009.22 1009.26 1009.32 1009.41 1009.54
1011.92 1011.54 1011.13 1010.69 1010.24 1009.79 1009.36 1008.97 1008.62 1008.31 1008.05 1007.81 1007.59 1007.37 1007.14 1006.91 1006.68 1006.46 1006.26 1006.12 1006.04 1006.03 1006.11 1006.27 1006.49 1006.78 1007.11 1007.45 1007.79 1008.11 1008.41 1008.66 1008.86 1009.02 1009.14 1009.21 1009.26 1009.29 1009.32 1009.35 1009.39 1009.47 1009.58
1011.01 1010.64 1010.26 1009.87 1009.48 1009.11 1008.77 1008.47 1008.20 1007.97 1007.77 1007.58 1007.40 1007.21 1007.01 1006.81 1006.62 1006.45 1006.31 1006.24 1006.24 1006.31 1006.47 1006.70 1006.98 1007.31 1007.65 1007.98 1008.30 1008.58 1008.83 1009.02 1009.17 1009.29 1009.37 1009.42 1009.45 1009.47 1009.49 1009.51 1009.55 1009.60 1009.69
1009.91 1009.55 1009.20 1008.85 1008.53 1008.24 1007.99 1007.78 1007.60 1007.45 1007.31 1007.18 1007.04 1006.89 1006.73 1006.57 1006.42 1006.29 1006.22 1006.21 1006.28 1006.43 1006.65 1006.95 1007.28 1007.65 1008.01 1008.35 1008.66 1008.92 1009.14 1009.31 1009.44 1009.53 1009.60 1009.65 1009.69 1009.72 1009.75 1009.78 1009.81 1009.85 1009.91
1008.73 1008.38 1008.05 1007.75 1007.49 1007.27 1007.09 1006.95 1006.85 1006.76 1006.69 1006.61 1006.52 1006.41 1006.28 1006.16 1006.05 1005.98 1005.96 1006.01 1006.15 1006.36 1006.65 1007.00 1007.38 1007.78 1008.17 1008.53 1008.84 1009.11 1009.32 1009.49 1009.62 1009.73 1009.81 1009.89 1009.95 1010.01 1010.07 1010.12 1010.16 1010.21 1010.25
1007.61 1007.26 1006.95 1006.68 1006.45 1006.28 1006.15 1006.07 1006.01 1005.98 1005.95 1005.91 1005.86 1005.79 1005.71 1005.64 1005.58 1005.56 1005.60 1005.71 1005.91 1006.18 1006.51 1006.90 1007.32 1007.75 1008.16 1008.54 1008.87 1009.15 1009.38 1009.57 1009.72 1009.86 1009.98 1010.10 1010.21 1010.32 1010.41 1010.50 1010.57 1010.63 1010.67
1006.61 1006.27 1005.98 1005.72 1005.52 1005.37 1005.26 1005.20 1005.17 1005.16 1005.16 1005.16 1005.15 1005.12 1005.10 1005.08 1005.09 1005.13 1005.23 1005.40 1005.64 1005.95 1006.33 1006.75 1007.19 1007.63 1008.06 1008.45 1008.80 1009.09 1009.35 1009.56 1009.76 1009.93 1010.10 1010.27 1010.43 1010.59 1010.74 1010.87 1010.98 1011.06 1011.12
1005.76 1005.44 1005.15 1004.91 1004.71 1004.56 1004.46 1004.40 1004.38 1004.38 1004.39 1004.42 1004.45 1004.48 1004.51 1004.57 1004.64 1004.76 1004.93 1005.15 1005.44 1005.78 1006.18 1006.61 1007.05 1007.50 1007.93 1008.32 1008.68 1008.99 1009.27 1009.52 1009.74 1009.96 1010.17 1010.39 1010.60 1010.81 1011.00 1011.18 1011.33 1011.44 1011.53
1005.03 1004.72 1004.45 1004.21 1004.01 1003.85 1003.74 1003.66 1003.63 1003.63 1003.66 1003.72 1003.79 1003.89 1004.01 1004.14 1004.31 1004.50 1004.74 1005.02 1005.35 1005.71 1006.11 1006.54 1006.97 1007.40 1007.81 1008.20 1008.56 1008.88 1009.18 1009.45 1009.71 1009.96 1010.21 1010.46 1010.71 1010.95 1011.18 1011.40 1011.58 1011.73 1011.84
1004.32 1004.04 1003.78 1003.54 1003.34 1003.17 1003.03 1002.94 1002.90 1002.90 1002.95 1003.05 1003.19 1003.36 1003.56 1003.79 1004.05 1004.34 1004.65 1004.98 1005.34 1005.72 1006.11 1006.52 1006.93 1007.33 1007.72 1008.10 1008.45 1008.78 1009.08 1009.38 1009.66 1009.94 1010.21 1010.49 1010.76 1011.02 1011.27 1011.51 1011.71 1011.89 1012.02
1003.56 1003.30 1003.06 1002.83 1002.62 1002.43 1002.28 1002.18 1002.13 1002.14 1002.22 1002.37 1002.57 1002.83 1003.13 1003.46 1003.82 1004.19 1004.57 1004.96 1005.34 1005.72 1006.11 1006.49 1006.87 1007.25 1007.62 1007.98 1008.32 1008.66 1008.98 1009.30 1009.60 1009.90 1010.19 1010.48 1010.75 1011.02 1011.28 1011.52 1011.74 1011.93 1012.09
1002.68 1002.44 1002.21 1001.99 1001.77 1001.58 1001.42 1001.31 1001.27 1001.30 1001.41 1001.61 1001.89 1002.23 1002.63 1003.06 1003.51 1003.96 1004.40 1004.83 1005.23 1005.61 1005.99 1006.35 1006.70 1007.06 1007.42 1007.78 1008.14 1008.49 1008.84 1009.19 1009.52 1009.84 1010.14 1010.43 1010.71 1010.98 1011.23 1011.47 1011.69 1011.89 1012.07
1001.66 1001.44 1001.22 1001.01 1000.79 1000.60 1000.43 1000.32 1000.29 1000.34 1000.50 1000.75 1001.10 1001.52 1002.00 1002.52 1003.04 1003.56 1004.04 1004.50 1004.91 1005.30 1005.66 1006.01 1006.36 1006.71 1007.08 1007.46 1007.85 1008.24 1008.64 1009.03 1009.40 1009.75 1010.07 1010.37 1010.65 1010.91 1011.16 1011.39 1011.61 1011.81 1012.00
1000.55 1000.34 1000.14 999.92 999.71 999.51 999.35 999.25 999.23 999.31 999.50 999.80 1000.21 1000.69 1001.24 1001.82 1002.39 1002.95 1003.47 1003.94 1004.36 1004.74 1005.10 1005.45 1005.80 1006.18 1006.57 1007.00 1007.44 1007.90 1008.36 1008.81 1009.23 1009.62 1009.98 1010.30 1010.58 1010.84 1011.08 1011.30 1011.52 1011.72 1011.92
999.43 999.23 999.03 998.82 998.61 998.42 998.26 998.17 998.16 998.27 998.49 998.83 999.27 999.80 1000.39 1001.00 1001.60 1002.18 1002.71 1003.18 1003.60 1003.99 1004.35 1004.71 1005.09 1005.50 1005.95 1006.44 1006.95 1007.49 1008.03 1008.54 1009.03 1009.47 1009.87 1010.21 1010.50 1010.76 1011.00 1011.22 1011.43 1011.64 1011.84
998.39 998.20 998.00 997.80 997.60 997.41 997.26 997.18 997.19 997.32 997.56 997.92 998.39 998.94 999.54 1000.17 1000.77 1001.35 1001.87 1002.34 1002.75 1003.14 1003.51 1003.89 1004.31 1004.77 1005.28 1005.84 1006.44 1007.06 1007.67 1008.26 1008.81 1009.31 1009.73 1010.10 1010.40 1010.67 1010.90 1011.11 1011.32 1011.53 1011.75
997.51 997.33 997.15 996.95 996.76 996.58 996.45 996.39 996.41 996.55 996.81 997.19 997.67 998.22 998.82 999.43 1000.03 1000.58 1001.09 1001.54 1001.95 1002.34 1002.72 1003.13 1003.59 1004.10 1004.67 1005.31 1005.98 1006.67 1007.35 1008.00 1008.60 1009.13 1009.58 1009.95 1010.27 1010.53 1010.75 1010.96 1011.17 1011.37 1011.59
996.84 996.67 996.51 996.33 996.15 995.99 995.88 995.84 995.88 996.04 996.31 996.69 997.17 997.71 998.30 998.89 999.46 999.99 1000.47 1000.91 1001.31 1001.70 1002.11 1002.54 1003.04 1003.59 1004.22 1004.91 1005.63 1006.37 1007.10 1007.78 1008.40 1008.94 1009.40 1009.77 1010.07 1010.32 1010.53 1010.72 1010.92 1011.11 1011.32
996.36 996.23 996.08 995.93 995.78 995.64 995.56 995.53 995.60 995.78 996.06 996.44 996.91 997.45 998.01 998.58 999.12 999.63 1000.10 1000.52 1000.92 1001.32 1001.73 1002.19 1002.72 1003.31 1003.97 1004.68 1005.43 1006.19 1006.93 1007.61 1008.22 1008.74 1009.17 1009.52 1009.79 1010.00 1010.19 1010.36 1010.53 1010.71 1010.91
996.05 995.94 995.83 995.70 995.58 995.48 995.42 995.42 995.52 995.71 996.00 996.39 996.86 997.38 997.93 998.47 998.99 999.48 999.93 1000.35 1000.75 1001.16 1001.59 1002.06 1002.60 1003.21 1003.88 1004.61 1005.35 1006.10 1006.81 1007.46 1008.03 1008.51 1008.89 1009.19 1009.41 1009.58 1009.73 1009.87 1010.01 1010.17 1010.36
995.83 995.75 995.67 995.57 995.48 995.40 995.37 995.41 995.53 995.74 996.04 996.44 996.90 997.41 997.94 998.47 998.98 999.46 999.90 1000.32 1000.72 1001.13 1001.58 1002.07 1002.62 1003.23 1003.90 1004.60 1005.32 1006.03 1006.69 1007.29 1007.80 1008.21 1008.53 1008.77 1008.94 1009.06 1009.16 1009.26 1009.38 1009.52 1009.69
995.65 995.59 995.53 995.45 995.39 995.34 995.34 995.40 995.54 995.77 996.08 996.48 996.94 997.44 997.96 998.47 998.97 999.44 999.88 1000.30 1000.71 1001.13 1001.59 1002.09 1002.64 1003.25 1003.90 1004.58 1005.26 1005.92 1006.52 1007.06 1007.50 1007.85 1008.10 1008.28 1008.39 1008.46 1008.53 1008.60 1008.69 1008.82 1008.98
Thickness
5670 5671 5673 5675 5678 5679 5680 5680 5680 5680 5679 5678 5678 5677 5677 5677 5677 5677 5678 5678 5678 5679 5679 5679 5679 5680 5681 5682 5682 5681 5680 5678 5673 5670 5669 5669 5669 5669 5669 5669 5669 5669 5666
5654 5655 5657 5659 5662 5664 5668 5669 5670 5671 5672 5672 5671 5671 5671 5672 5672 5671 5671 5672 5673 5673 5674 5674 5674 5675 5674 5674 5674 5673 5672 5672 5667 5660 5658 5658 5658 5659 5659 5660 5661 5661 5658
5637 5638 5639 5641 5643 5647 5651 5655 5658 5661 5662 5664 5664 5664 5664 5665 5665 5665 5665 5665 5665 5666 5666 5666 5666 5667 5665 5665 5664 5664 5663 5662 5658 5653 5648 5648 5648 5649 5649 5651 5652 5652 5651
5620 5620 5622 5624 5626 5629 5634 5639 5644 5648 5651 5654 5655 5656 5657 5658 5658 5658 5658 5657 5657 5657 5658 5658 5658 5657 5656 5655 5654 5653 5652 5649 5647 5643 5640 5638 5639 5640 5642 5643 5642 5643 5644
5602 5603 5604 5607 5610 5613 5617 5622 5628 5633 5638 5642 5645 5647 5649 5650 5651 5650 5649 5649 5649 5648 5648 5648 5648 5647 5646 5645 5645 5642 5641 5638 5636 5634 5632 5632 5632 5633 5636 5638 5636 5636 5636
5586 5586 5588 5589 5591 5595 5599 5604 5610 5616 5622 5627 5631 5635 5638 5642 5639 5636 5637 5640 5640 5639 5637 5636 5636 5635 5633 5633 5632 5631 5631 5630 5629 5628 5628 5627 5626 5628 5630 5632 5632 5633 5630
5571 5571 5572 5572 5575 5577 5581 5585 5590 5597 5603 5609 5616 5621 5626 5628 5626 5625 5625 5630 5632 5630 5628 5626 5626 5623 5623 5622 5620 5619 5619 5619 5621 5624 5621 5621 5619 5621 5623 5624 5625 5626 5623
5552 5553 5555 5556 5557 5559 5562 5566 5571 5578 5584 5591 5598 5606 5612 5616 5615 5615 5616 5621 5623 5621 5619 5617 5615 5613 5613 5612 5611 5610 5609 5608 5611 5613 5611 5611 5611 5613 5615 5616 5615 5614 5615
5532 5532 5534 5535 5537 5539 5543 5547 5553 5558 5565 5573 5581 5589 5596 5602 5603 5604 5605 5613 5613 5611 5610 5608 5606 5604 5601 5603 5603 5602 5599 5597 5596 5597 5599 5599 5599 5602 5606 5611 5612 5614 5613
5516 5517 5517 5518 5519 5521 5525 5530 5536 5541 5547 5556 5565 5573 5582 5589 5592 5593 5595 5606 5605 5603 5600 5598 5597 5596 5592 5595 5597 5595 5593 5591 5592 5591 5590 5591 5594 5596 5600 5606 5611 5612 5611
5509 5509 5509 5509 5510 5512 5515 5518 5522 5528 5534 5540 5548 5559 5567 5575 5580 5583 5587 5597 5600 5598 5595 5594 5590 5584 5585 5587 5590 5590 5588 5588 5588 5588 5588 5590 5591 5593 5596 5598 5601 5606 5606
5507 5507 5507 5507 5508 5511 5512 5514 5516 5519 5524 5530 5536 5544 5554 5562 5569 5573 5577 5583 5590 5593 5592 5591 5584 5577 5578 5580 5584 5581 5582 5585 5588 5588 5588 5589 5590 5590 5589 5589 5590 5592 5594
5506 5506 5506 5506 5507 5508 5509 5511 5514 5516 5520 5526 5529 5535 5542 5551 5559 5564 5567 5572 5579 5586 5588 5582 5576 5572 5572 5575 5574 5576 5579 5585 5586 5587 5586 5586 5586 5584 5583 5583 5584 5585 5586
5505 5505 5505 5505 5506 5508 5508 5511 5513 5517 5519 5522 5524 5528 5533 5540 5550 5556 5561 5565 5568 5575 5576 5568 5566 5567 5572 5571 5570 5574 5581 5585 5585 5585 5583 5582 5581 5581 5584 5585 5586 5586 5586
5502 5502 5502 5504 5505 5506 5507 5508 5511 5513 5515 5515 5518 5520 5524 5532 5543 5552 5560 5565 5570 5575 5570 5570 5570 5572 5574 5575 5576 5579 5581 5580 5581 5582 5581 5580 5581 5581 5582 5584 5584 5586 5585
5496 5497 5498 5500 5501 5502 5504 5506 5507 5506 5506 5505 5506 5509 5517 5523 5533 5541 5550 5559 5563 5564 5568 5572 5574 5576 5578 5578 5579 5578 5579 5579 5580 5580 5580 5580 5580 5579 5579 5580 5582 5583 5581
5489 5489 5489 5491 5493 5495 5499 5501 5503 5503 5500 5500 5501 5503 5509 5518 5526 5535 5543 5550 5553 5557 5568 5573 5576 5578 5579 5580 5580 5579 5579 5579 5578 5579 5578 5578 5578 5578 5577 5578 5578 5578 5577
5483 5483 5484 5485 5487 5491 5494 5497 5500 5503 5504 5506 5503 5503 5507 5515 5524 5531 5537 5543 5548 5555 5570 5574 5577 5579 5580 5580 5580 5580 5579 5576 5576 5577 5576 5576 5576 5576 5576 5576 5575 5574 5573
5478 5479 5480 5481 5484 5487 5491 5494 5497 5501 5504 5507 5509 5509 5510 5516 5523 5529 5535 5550 5556 5562 5572 5575 5578 5579 5580 5580 5580 5579 5577 5575 5574 5575 5574 5573 5574 5574 5573 5573 5571 5561 5567
5474 5476 5476 5478 5481 5484 5488 5493 5496 5500 5504 5509 5512 5515 5515 5520 5526 5530 5540 5555 5561 5565 5573 5576 5578 5580 5580 5580 5578 5577 5576 5574 5572 5573 5572 5572 5572 5572 5570 5569 5568 5565 5564
5471 5474 5474 5476 5480 5484 5489 5493 5497 5501 5506 5512 5517 5521 5522 5531 5538 5542 5550 5560 5567 5570 5575 5578 5580 5580 5580 5578 5578 5576 5576 5574 5572 5572 5572 5570 5570 5569 5568 5567 5565 5564 5562
5470 5473 5476 5479 5483 5487 5491 5495 5500 5506 5512 5518 5522 5526 5527 5538 5546 5553 5559 5567 5572 5575 5578 5580 5581 5582 5581 5580 5578 5577 5576 5574 5573 5572 5571 5569 5567 5566 5565 5564 5562 5560 5558
5470 5474 5478 5482 5486 5488 5494 5500 5507 5514 5520 5526 5531 5535 5538 5548 5555 5561 5567 5572 5576 5579 5580 5581 5582 5583 5582 5581 5579 5578 5577 5575 5574 5572 5570 5568 5566 5564 5563 5561 5558 5556 5555
5472 5476 5481 5487 5491 5497 5503 5510 5516 5523 5529 5536 5540 5544 5549 5557 5562 5567 5572 5577 5579 5581 5582 5583 5583 5584 5582 5580 5579 5578 5578 5576 5573 5571 5568 5567 5565 5563 5561 5558 5556 5555 5552
5477 5482 5487 5493 5499 5505 5512 5519 5526 5532 5538 5543 5548 5553 5559 5564 5569 5573 5577 5580 5582 5583 5583 5583 5584 5584 5582 5580 5579 5579 5576 5573 5570 5569 5566 5564 5563 5561 5559 5557 5555 5553 5550
5486 5492 5497 5502 5508 5515 5522 5529 5536 5541 5547 5552 5557 5562 5567 5571 5575 5578 5582 5583 5584 5584 5584 5584 5585 5584 5582 5579 5578 5576 5571 5569 5566 5563 5564 5563 5561 5560 5557 5556 5554 5551 5549